Location: Zagreb
(45.8000°N, 16.0000°E)
Time: 15:44:23
(UTC+02:00)

Transit 2A - Pass Details

Date: 10 August 2022
Orbit: 601 x 956 km, 66.7° (Epoch: 25 September)

Event Time Altitude Azimuth Distance (km) Brightness Sun altitude
Rises 19:54:48 0° 335° (NNW) 2,864 9.7 2.0°
Reaches altitude 10° 19:57:37 10° 354° (N) 1,954 8.5 1.6°
Maximum altitude 20:00:45 19° 41° (NE) 1,459 7.3 1.0°
Drops below altitude 10° 20:03:57 10° 87° (E) 1,986 7.6 0.5°
Sets 20:06:50 0° 105° (ESE) 2,929 8.3 0.1°
Enters shadow 20:06:50 - 105° (ESE) 2,930 8.3 0.1°
